TDRS 10

Last updated on Sat Oct 11 2025 00:02:41 GMT+0000 (Coordinated Universal Time)

1 27566U 02055A 25283.39708183 .00000037 00000+0 00000+0 0 9995 2 27566 9.5892 44.8663 0014221 223.9058 141.9592 0.98860356 83738
UTC large
Height (km)
Speed (km/s)
/
Latitude / Longitude
Inclination (degrees)
Orbital Period (minutes)
Azimuth
Elevation
Range (km)
Doppler Factor

Next 0 passes for location: London (51.5072 / 0.1276)

Sorry there are no passes over London.
TDRS 10